Tracking 35274 objects as of 11-Sep-2026
HD Live streaming from Space Station
objects crossing your sky now

COSMOS 2550

Track COSMOS 2550 now!
10-day predictions


NORAD ID: 48865
Int'l Code: 2021-056A
Launch date: June 25, 2021
Source: Commonwealth of Independent States (former USSR) (CIS)
Launch site: PLESETSK MISSILE AND SPACE COMPLEX (PKMTR)
Your satellite tracking list
Your tracking list is empty




NASA's NSSDC Master Catalog

Two Line Element Set (TLE):
1 48865U 21056A   26253.83724502  .00004015  00000-0  12778-3 0  9992
2 48865  67.1422 200.8127 0008365 268.5915  91.4281 15.33832250291855
Source of the keplerian elements: AFSPC